#timestamp,LO_Frequency,Hit,StdDev 
1537516815.6,286047004.7,N
1537516835.5,286047006.0,N
1537516855.3,286047005.9,N
1537516875.1,286047003.4,N
1537516895.9,286047007.6,N
1537516915.7,286047007.2,N
1537516935.5,286047006.4,N
1537516955.4,286047006.3,N
1537516975.2,286047007.8,N
1537516995.0,286047005.7,N
1537516995.9,286047005.7,N
1537517015.8,286047001.3,N
1537517035.6,286047004.2,N
1537517055.5,286047001.8,N
1537517075.3,286047001.9,N
1537517095.1,286047002.3,N
1537517115.9,286047002.6,N
1537517135.7,286047000.2,N
1537517155.5,286047001.5,N
1537517175.4,286047003.4,N
1537517195.2,286047003.5,N
1537517215.1,286047003.9,N
1537517216.0,286047003.9,N
1537517235.8,286047004.2,N
1537517255.6,286047003.1,N
1537517275.5,286047001.5,N
1537517295.3,286047001.9,N
1537517315.1,286047004.2,N
1537517335.9,286047004.3,N
1537517355.7,286047004.0,N
1537517375.6,286047003.7,N
1537517395.4,286047004.2,N
1537517415.2,286047003.1,N
1537517435.1,286047004.0,N
1537517436.0,286047004.0,N
1537517455.8,286047006.0,Y
1537517475.6,286046998.1,P
1537517495.5,286046998.7,N
1537517515.3,286047000.4,N
1537517535.2,286047002.6,N
1537517555.9,286047002.1,N
1537517575.7,286046999.9,N
1537517595.6,286046998.5,N
1537517615.4,286046998.8,N
1537517635.2,286046999.1,N
1537517655.1,286046997.0,N
1537517656.0,286046997.0,N
1537517675.8,286046999.6,N
1537517695.7,286046997.4,N
1537517715.5,286046995.5,N
1537517735.3,286046999.6,N
1537517755.2,286046997.3,N
1537517775.9,286046999.1,N
1537517795.7,286046996.2,N
1537517815.6,286046995.8,N
1537517835.4,286046995.8,N
1537517855.2,286046996.2,N
1537517875.1,286046997.6,N
1537517876.0,286046997.6,N
1537517895.8,286046996.4,N
1537517915.7,286046995.0,N
1537517935.5,286046997.4,N
1537517955.3,286046997.7,N
1537517975.2,286046993.6,Y
1537517995.0,286046993.5,P
1537517995.9,286046993.5,N
1537518015.8,286046992.5,P
1537518035.6,286046991.8,Y
1537518055.4,286046998.5,P
1537518075.3,286046997.0,N
1537518095.1,286046997.9,N
1537518115.8,286046998.0,N
1537518135.7,286046999.4,N
1537518155.5,286046995.1,Y
1537518175.4,286046997.6,P
1537518195.2,286046998.1,P
1537518215.0,286046999.3,N
1537518215.9,286046999.3,N
1537518235.8,286047000.6,N
1537518255.6,286047000.9,N
1537518275.4,286047000.7,N
1537518295.3,286046998.4,N
1537518315.1,286046998.4,N
1537518335.9,286046999.1,N
1537518355.7,286046998.3,N
1537518375.5,286047000.9,N
1537518395.4,286046998.7,N
1537518415.2,286046998.9,N
1537518435.0,286046998.5,N
1537518436.0,286046998.5,N
1537518455.8,286046998.2,N
1537518475.6,286047000.6,N
1537518495.5,286046998.4,N
1537518515.3,286046997.8,N
1537518535.1,286046995.1,Y
1537518555.9,286046999.6,P
1537518575.7,286046996.5,P
1537518595.6,286046998.8,N
1537518615.4,286046996.8,N
1537518635.2,286046995.3,Y
1537518655.1,286046999.6,P
1537518656.0,286046999.6,N
1537518675.8,286046998.9,N
1537518695.7,286046998.6,N
1537518715.5,286046999.2,N
1537518735.3,286046997.5,Y
1537518755.2,286046997.9,P
1537518775.0,286046999.4,N
1537518775.9,286046999.4,N
1537518795.8,286047000.6,N
1537518815.6,286047004.2,Y
1537518835.4,286047004.4,P
1537518855.3,286047000.1,N
1537518875.1,286046998.8,N
1537518895.8,286046999.2,N
1537518915.7,286046997.4,N
1537518935.5,286046997.1,N
1537518955.4,286046997.6,N
1537518975.2,286046995.0,N
1537518995.0,286046995.7,N
1537518995.9,286046995.7,N
1537519015.8,286046992.0,Y
1537519035.6,286046994.6,P
1537519055.5,286046992.9,P
1537519075.3,286046991.3,P
1537519095.1,286046991.6,Y
1537519115.9,286046995.4,P
1537519135.7,286046995.2,P
1537519155.6,286046996.0,P
1537519175.4,286046995.4,Y
1537519195.2,286047002.7,P
1537519215.1,286047000.1,N
1537519216.0,286047000.1,N
1537519235.8,286047000.9,N
1537519255.7,286046999.0,N
1537519275.5,286046999.2,N
1537519295.3,286046999.4,N
1537519315.2,286046999.5,N
1537519335.0,286046999.1,N
1537519335.9,286046999.1,N
1537519355.7,286046999.6,N
1537519375.6,286046997.9,N
1537519395.4,286046995.7,N
1537519415.3,286046995.6,N
1537519435.1,286046996.2,N
1537519436.0,286046996.2,N
1537519455.8,286046995.9,N
1537519475.7,286046995.9,N
1537519495.5,286046997.5,N
1537519515.3,286046999.3,N
1537519535.2,286046999.0,N
1537519555.0,286046999.2,N
1537519555.9,286046999.2,N
1537519575.8,286046994.9,N
1537519595.6,286046993.3,Y
1537519615.4,286046995.8,P
1537519635.3,286046995.7,P
1537519655.1,286046996.0,P
1537519675.8,286046993.6,Y
1537519695.7,286046997.3,P
1537519715.5,286046997.4,P
1537519735.4,286046997.6,P
1537519755.2,286046995.7,Y
1537519775.0,286046997.3,P
1537519775.9,286046997.3,P
1537519795.8,286046997.1,P
1537519815.6,286046998.0,Y
1537519835.5,286047001.2,P
1537519855.3,286047000.5,N
1537519875.1,286047000.4,N
1537519895.9,286046998.2,N
1537519915.7,286046998.9,N
1537519935.5,286046998.9,N
1537519955.4,286046999.4,N
1537519975.2,286046999.1,N
1537519995.1,286046996.5,Y
1537519996.0,286046996.5,P
1537520015.8,286046996.9,N
1537520035.6,286046995.8,P
1537520055.5,286046995.9,Y
1537520075.3,286046996.9,P
1537520095.1,286046996.5,P
1537520115.9,286046997.0,P
1537520135.7,286046997.1,Y
1537520155.6,286047001.2,P
1537520175.4,286046998.4,N
1537520195.2,286046998.1,N
1537520215.1,286047001.1,N
1537520216.0,286047001.1,N
1537520235.8,286047000.7,N
1537520255.6,286046998.1,N
1537520275.5,286046998.4,N
1537520295.3,286046998.6,N
1537520315.2,286046999.0,N
1537520335.9,286046998.4,N
1537520355.7,286046997.0,N
1537520375.6,286047011.9,Y
1537520395.4,286046998.0,P
